Back to catalog

GLOBALSTAR M015

AliveCommunicationsLEO
NORAD 25308·PAYLOAD·🇺🇸 United States

Launched Apr 24, 1998 from Cape Canaveral Space Force Station

Loading…

Next Passes (next 24 hours)

TLE

FreshSource: Space-Track

Epoch: Sep 14, 2026, 09:06 UTC

1 25308U 98023C   26257.37966005 -.00000022  00000-0  11691-2 0  9993
2 25308  51.9815 283.8006 0013242 166.0271 207.4659 11.48866152246288

Track GLOBALSTAR M015 in real time with AllMySat

Download on the App Store